Location: The Saddle
(36.8333°N, 80.3417°W)
Time: 09:30:55
(UTC-05:00)

S-56A Canister/Altair - Pass Details

Date: 09 December 2023
Orbit: 640 x 2488 km, 38.9° (Epoch: 25 February)

Event Time Altitude Azimuth Distance (km) Brightness Sun altitude
Rises 16:20:28 0° 280° (W) 2,975 11.3 6.7°
Reaches altitude 10° 16:22:52 10° 267° (W) 2,140 11.0 6.3°
Maximum altitude 16:26:59 28° 208° (SSW) 1,450 10.1 5.7°
Drops below altitude 10° 16:32:09 10° 151° (SSE) 2,722 10.4 4.8°
Sets 16:35:39 0° 141° (SE) 3,967 11.1 4.2°
